User: anonymous   Login
Location: Unspecified
(0.0000°N, 0.0000°E)
Time: 08:27:06
(UTC+00:00)
Language:

MAROC-TUBSAT - Orbit

View from above orbital plane
View from above orbital plane
View from above satellite
View from above satellite

Ground track
Ground track

The orbit is defined by the following mean orbital elements,

1 27004U          26159.45784590 +.00000000 +00000-0 +32382-4 0 00003
2 27004  99.8079 336.1531 0020048 163.2079 251.8216 13.70262040    01
Epoch (UTC): 08 June 2026 10:59:17
Eccentricity: 0.0020048
inclination: 99.8079°
perigee height: 984 km
apogee height: 1013 km
right ascension of ascending node: 336.1531°
argument of perigee: 163.2079°
revolutions per day: 13.70262040
mean anomaly at epoch: 251.8216°

The dashed part of the orbit path shows where the satellite is in the earth's shadow,  

DLR